Kilmarnock, Virginia, United States (22482)
Lat: 37.71N, Lon: 76.38W
Wx Zone: VAZ078
Local Info
Past Weather Observations for Yesterday

NOTE: This archive is for the closest National Weather Service station to Kilmarnock. Information may differ from the station used for current weather conditions.

Click here for Long-term Archive

Time Weather Temperature Dewpoint Humidity Pressure Winds Precip Visibility
23:55
Overcast
39°F / 4°C 36°F / 2°C 87% 30.04 in
(1017 mb)
SW 6.9 mph
(SW 11 kph)
- 7SM
23:35
Overcast
39°F / 4°C 36°F / 2°C 87% 30.04 in
(1017 mb)
SW 5.8 mph
(SW 9 kph)
- 5SM
23:15
Overcast
39°F / 4°C 36°F / 2°C 87% 30.04 in
(1017 mb)
SW 5.8 mph
(SW 9 kph)
- 4SM
22:55
Overcast
39°F / 4°C 36°F / 2°C 87% 30.06 in
(1018 mb)
SW 8.1 mph
(SW 13 kph)
- 5SM
22:35
Overcast
39°F / 4°C 36°F / 2°C 87% 30.06 in
(1018 mb)
SW 6.9 mph
(SW 11 kph)
- 3SM
22:15
Overcast
39°F / 4°C 36°F / 2°C 87% 30.06 in
(1018 mb)
SW 6.9 mph
(SW 11 kph)
- 5SM
21:55
Overcast
39°F / 4°C 34°F / 1°C 81% 30.09 in
(1019 mb)
SW 5.8 mph
(SW 9 kph)
- 5SM
21:35
Overcast
39°F / 4°C 34°F / 1°C 81% 30.09 in
(1019 mb)
SSE 6.9 mph
(SSE 11 kph)
- 4SM
21:15
Overcast
39°F / 4°C 34°F / 1°C 81% 30.09 in
(1019 mb)
SW 5.8 mph
(SW 9 kph)
- 5SM
20:55
Overcast
39°F / 4°C 34°F / 1°C 81% 30.12 in
(1020 mb)
SW 6.9 mph
(SW 11 kph)
- 10SM
20:35
Overcast
39°F / 4°C 32°F / 0°C 75% 30.12 in
(1020 mb)
SW 6.9 mph
(SW 11 kph)
- 10SM
20:15
Overcast
39°F / 4°C 32°F / 0°C 75% 30.12 in
(1020 mb)
SW 6.9 mph
(SW 11 kph)
- 10SM
19:55
Overcast
39°F / 4°C 32°F / 0°C 75% 30.12 in
(1020 mb)
SSE 6.9 mph
(SSE 11 kph)
- 10SM
19:35
Overcast
39°F / 4°C 30°F / -1°C 70% 30.12 in
(1020 mb)
S 6.9 mph
(S 11 kph)
- 10SM
19:15
Overcast
39°F / 4°C 28°F / -2°C 65% 30.15 in
(1021 mb)
S 4.6 mph
(S 7 kph)
- 10SM
18:55
Overcast
39°F / 4°C 28°F / -2°C 65% 30.15 in
(1021 mb)
SW 5.8 mph
(SW 9 kph)
- 10SM
18:35
Overcast
39°F / 4°C 27°F / -3°C 61% 30.15 in
(1021 mb)
SSE 5.8 mph
(SSE 9 kph)
- 10SM
18:15
Overcast
39°F / 4°C 27°F / -3°C 61% 30.15 in
(1021 mb)
S 5.8 mph
(S 9 kph)
- 10SM
17:55
Overcast
39°F / 4°C 27°F / -3°C 61% 30.18 in
(1022 mb)
S 3.5 mph
(S 6 kph)
- 10SM
17:35
Overcast
39°F / 4°C 28°F / -2°C 65% 30.18 in
(1022 mb)
Calm - 10SM
17:15
Overcast
39°F / 4°C 28°F / -2°C 65% 30.18 in
(1022 mb)
Calm - 10SM
16:55
Overcast
39°F / 4°C 27°F / -3°C 61% 30.21 in
(1023 mb)
Calm - 10SM
16:35
Overcast
39°F / 4°C 27°F / -3°C 61% 30.21 in
(1023 mb)
Calm - 10SM
16:15
Overcast
39°F / 4°C 27°F / -3°C 61% 30.24 in
(1024 mb)
Calm - 10SM
15:55
Overcast
39°F / 4°C 25°F / -4°C 56% 30.21 in
(1023 mb)
SSE 4.6 mph
(SSE 7 kph)
- 10SM
15:35
Overcast
39°F / 4°C 25°F / -4°C 56% 30.24 in
(1024 mb)
SE 6.9 mph
(SE 11 kph)
- 10SM
15:15
Overcast
37°F / 3°C 25°F / -4°C 60% 30.24 in
(1024 mb)
SE 5.8 mph
(SE 9 kph)
- 10SM
14:55
Overcast
37°F / 3°C 25°F / -4°C 60% 30.27 in
(1025 mb)
SE 5.8 mph
(SE 9 kph)
- 10SM
14:35
Overcast
37°F / 3°C 23°F / -5°C 56% 30.27 in
(1025 mb)
SSE 4.6 mph
(SSE 7 kph)
- 10SM
14:15
Overcast
37°F / 3°C 23°F / -5°C 56% 30.27 in
(1025 mb)
SE 5.8 mph
(SE 9 kph)
- 10SM
13:55
Overcast
37°F / 3°C 23°F / -5°C 56% 30.3 in
(1026 mb)
SE 8.1 mph
(SE 13 kph)
- 10SM
13:35
Overcast
37°F / 3°C 23°F / -5°C 56% 30.33 in
(1027 mb)
SE 4.6 mph
(SE 7 kph)
- 10SM
13:15
Overcast
37°F / 3°C 23°F / -5°C 56% 30.33 in
(1027 mb)
SSE 6.9 mph
(SSE 11 kph)
- 10SM
12:55
Overcast
37°F / 3°C 21°F / -6°C 52% 30.36 in
(1028 mb)
SSE 10.4 mph
(SSE 17 kph)
- 10SM
12:35
Overcast
37°F / 3°C 21°F / -6°C 52% 30.39 in
(1029 mb)
SSE 6.9 mph
(SSE 11 kph)
- 10SM
12:15
Overcast
36°F / 2°C 19°F / -7°C 52% 30.39 in
(1029 mb)
SSE 8.1 mph
(SSE 13 kph)
- 10SM
11:55
Overcast
37°F / 3°C 21°F / -6°C 52% 30.42 in
(1030 mb)
S 6.9 mph
(S 11 kph)
- 10SM
11:35
Overcast
37°F / 3°C 21°F / -6°C 52% 30.42 in
(1030 mb)
SSE 5.8 mph
(SSE 9 kph)
- 10SM
11:15
Overcast
37°F / 3°C 19°F / -7°C 48% 30.42 in
(1030 mb)
SE 8.1 mph
(SE 13 kph)
- 10SM
10:55
Overcast
37°F / 3°C 19°F / -7°C 48% 30.45 in
(1031 mb)
E 6.9 mph
(E 11 kph)
- 10SM
10:35
Overcast
37°F / 3°C 19°F / -7°C 48% 30.45 in
(1031 mb)
E 5.8 mph
(E 9 kph)
- 10SM
10:15
Overcast
36°F / 2°C 21°F / -6°C 56% 30.45 in
(1031 mb)
E 8.1 mph
(E 13 kph)
- 10SM
09:55
Overcast
36°F / 2°C 19°F / -7°C 52% 30.48 in
(1032 mb)
E 8.1 mph
(E 13 kph)
- 10SM
09:35
Overcast
36°F / 2°C 19°F / -7°C 52% 30.48 in
(1032 mb)
E 4.6 mph
(E 7 kph)
- 10SM
09:15
Overcast
36°F / 2°C 19°F / -7°C 52% 30.48 in
(1032 mb)
E 6.9 mph
(E 11 kph)
- 10SM
08:55
Overcast
36°F / 2°C 21°F / -6°C 56% 30.48 in
(1032 mb)
E 8.1 mph
(E 13 kph)
- 10SM
08:35
Overcast
34°F / 1°C 21°F / -6°C 60% 30.48 in
(1032 mb)
Calm - 10SM
08:15
Mostly Cloudy
34°F / 1°C 27°F / -3°C 75% 30.48 in
(1032 mb)
Calm - 10SM
07:55
Mostly Cloudy
30°F / -1°C 25°F / -4°C 80% 30.48 in
(1032 mb)
Calm - 10SM
07:35
Partly Cloudy
28°F / -2°C 23°F / -5°C 80% 30.45 in
(1031 mb)
Calm - 10SM
07:15
Clear
27°F / -3°C 21°F / -6°C 80% 30.45 in
(1031 mb)
Calm - 10SM
06:55
Clear
27°F / -3°C 21°F / -6°C 80% 30.45 in
(1031 mb)
Calm - 10SM
06:35
Clear
27°F / -3°C 21°F / -6°C 80% 30.45 in
(1031 mb)
Calm - 10SM
06:15
Clear
27°F / -3°C 21°F / -6°C 80% 30.45 in
(1031 mb)
Calm - 10SM
05:55
Clear
27°F / -3°C 21°F / -6°C 80% 30.45 in
(1031 mb)
Calm - 10SM
05:35
Clear
28°F / -2°C 21°F / -6°C 74% 30.45 in
(1031 mb)
Calm - 10SM
05:15
Clear
28°F / -2°C 23°F / -5°C 80% 30.45 in
(1031 mb)
Calm - 10SM
04:55
Clear
28°F / -2°C 21°F / -6°C 74% 30.45 in
(1031 mb)
Calm - 10SM
04:35
Partly Cloudy
28°F / -2°C 21°F / -6°C 74% 30.42 in
(1030 mb)
Calm - 10SM
04:15
Mostly Cloudy
30°F / -1°C 21°F / -6°C 69% 30.42 in
(1030 mb)
Calm - 10SM
03:55
Partly Cloudy
28°F / -2°C 21°F / -6°C 74% 30.42 in
(1030 mb)
Calm - 10SM
03:35
Clear
28°F / -2°C 21°F / -6°C 74% 30.42 in
(1030 mb)
Calm - 10SM
03:15
Clear
30°F / -1°C 19°F / -7°C 64% 30.42 in
(1030 mb)
Calm - 10SM
02:55
Clear
28°F / -2°C 23°F / -5°C 80% 30.42 in
(1030 mb)
NE 4.6 mph
(NE 7 kph)
- 10SM
02:35
Clear
28°F / -2°C 23°F / -5°C 80% 30.42 in
(1030 mb)
Calm - 10SM
02:15
Clear
27°F / -3°C 21°F / -6°C 80% 30.42 in
(1030 mb)
Calm - 10SM
01:55
Clear
28°F / -2°C 21°F / -6°C 74% 30.42 in
(1030 mb)
Calm - 10SM
01:35
Clear
30°F / -1°C 19°F / -7°C 64% 30.45 in
(1031 mb)
Calm - 10SM
01:15
Clear
28°F / -2°C 21°F / -6°C 74% 30.45 in
(1031 mb)
Calm - 10SM
00:55
Clear
30°F / -1°C 21°F / -6°C 69% 30.42 in
(1030 mb)
Calm - 10SM
00:35
Clear
30°F / -1°C 19°F / -7°C 64% 30.45 in
(1031 mb)
Calm - 10SM
00:15
Clear
28°F / -2°C 23°F / -5°C 80% 30.42 in
(1030 mb)
N 3.5 mph
(N 6 kph)
- 10SM
Time Weather Temperature Dewpoint Humidity Pressure Winds Precip Visibility


Weather for websites

WeatherForYou.com, LLC is not responsible for any damages or problems caused by this service. Current weather conditions are obtained from the closest station including government and personal stations which may have varying degrees of accuracy. Weather forecasts are derived from the NOAA NDFD. Like all things, this site belongs to Jesus Christ... He just trusts me to maintain it. If you have any questions or comments email webmaster@weatherforyou.com

Copyright © 2015, WeatherForYou.com LLC. All rights reserved.